Weather History for Andover, NJ

Change the Weather History Date:

Wednesday, July 31, 2013

  Actual Average (KFWN) Record (KFWN)
Temperature  
Mean Temperature 67 °F -  
Max Temperature 79 °F 81 °F 101 °F (1954)
Min Temperature 55 °F 58 °F 45 °F (1956)
Cooling Degree Days 2    
Growing Degree Days 17 (Base 50)    
Moisture  
Dew Point 58 °F    
Average Humidity 74    
Maximum Humidity 93    
Minimum Humidity 47    
Precipitation  
Precipitation 0.00 in - - ()
Sea Level Pressure  
Sea Level Pressure 30.11 in    
Wind  
Wind Speed 1 mph (SW)    
Max Wind Speed 6 mph    
Max Gust Speed -    
Averages and records for this station are not official NWS values.
T = Trace of Precipitation, MM = Missing Value Source: NWS Daily Summary

Daily Weather History Graph

Daily Weather History Graph

Search for Another Location

Airport:

Trip Planner

Search our weather history database for the weather conditions in past years. The results will help you decide how hot, cold, wet, or windy it might be!

Date:

Astronomy

Jul. 31, 2013 Rise Set
Actual Time 5:54 AM EDT 8:15 PM EDT
Civil Twilight 5:23 AM EDT 8:46 PM EDT
Nautical Twilight 4:44 AM EDT 9:24 PM EDT
Astronomical Twilight 4:02 AM EDT 10:07 PM EDT
Moon 12:47 AM EDT (7/31) 3:29 PM EDT (7/31)
Length of Visible Light 15h 23m
Length of Day
14h 21m
Waning Crescent, 32% of the Moon is Illuminated
Jul 31
Waning Crescent
Aug 6
New
Aug 14
First Quarter
Aug 20
Full
Aug 28
Last Quarter

Hourly Weather History & Observations

Time (EDT) Temp. Dew Point Humidity Pressure Visibility Wind Dir Wind Speed Gust Speed Precip Events Conditions
12:54 AM 57.9 °F 55.9 °F 93% 30.16 in - Calm Calm - N/A   Unknown
1:54 AM 57.9 °F 55.9 °F 93% 30.16 in - Calm Calm - N/A   Unknown
2:54 AM 57.0 °F 55.0 °F 93% 30.16 in - Calm Calm - N/A   Unknown
3:54 AM 57.0 °F 55.0 °F 93% 30.15 in - Calm Calm - N/A   Unknown
4:54 AM 55.9 °F 54.0 °F 93% 30.15 in - Calm Calm - N/A   Unknown
5:54 AM 55.9 °F 54.0 °F 93% 30.17 in - Calm Calm - N/A   Unknown
6:54 AM 57.0 °F 55.0 °F 93% 30.17 in - Calm Calm - N/A   Unknown
7:54 AM 63.0 °F 59.0 °F 87% 30.17 in - Calm Calm - N/A   Unknown
8:54 AM 68.0 °F 59.0 °F 73% 30.17 in - Calm Calm - N/A   Unknown
9:54 AM 72.0 °F 59.0 °F 64% 30.17 in - Calm Calm - N/A   Unknown
10:54 AM 75.0 °F 57.9 °F 55% 30.16 in - Calm Calm - N/A   Unknown
11:54 AM 75.0 °F 59.0 °F 57% 30.14 in - SSW 3.5 mph - N/A   Unknown
12:54 PM 77.0 °F 57.9 °F 52% 30.13 in - Calm Calm - N/A   Unknown
1:54 PM 77.0 °F 57.9 °F 52% 30.11 in - Variable 5.8 mph - N/A   Unknown
2:54 PM 77.0 °F 57.0 °F 50% 30.10 in - SW 5.8 mph - N/A   Unknown
3:54 PM 79.0 °F 57.0 °F 47% 30.08 in - South 3.5 mph - N/A   Unknown
4:54 PM 78.1 °F 59.0 °F 52% 30.07 in - WSW 4.6 mph - N/A   Unknown
5:54 PM 78.1 °F 60.1 °F 54% 30.06 in - SW 4.6 mph - N/A   Unknown
6:54 PM 77.0 °F 60.1 °F 56% 30.06 in - Variable 3.5 mph - N/A   Unknown
7:54 PM 73.0 °F 63.0 °F 71% 30.04 in - Calm Calm - N/A   Unknown
8:54 PM 68.0 °F 62.1 °F 81% 30.04 in - Calm Calm - N/A   Unknown
9:54 PM 66.0 °F 62.1 °F 87% 30.05 in - Calm Calm - N/A   Unknown
10:54 PM 64.0 °F 62.1 °F 93% 30.04 in - Calm Calm - N/A   Unknown
11:54 PM 64.0 °F 62.1 °F 93% 30.04 in - Calm Calm - N/A   Unknown